"Pseudo-MPEC" for P10HMoi

Created 2018 Jun 14 23:18:15 UT using Find_Orb

Click here for an explanation of pseudo-MPECs

 
 Astrometry: 
     P10HMoi  C2018 06 13@SAstrometry8_\mTe]=+y^Dhm!%j5p\+5pUCGPP_H6u))B@FM@*F51
     P10HMoi  C2018 06 13qbwMAAMVkca'3qJZ!!sI7HtQH;Ru5\Gw4Ns/UO!?7(RbRgc-:fx=F51
     P10HMoi  C2018 06 13lsHnhD#7kT%?M4tWiredacted;mHK0XAMe[9dx`7!.%!R\8Cjq,kF51
     P10HMoi  C2018 06 13OO^w!^-Y%ZD;MbmgynvXJN:L+4h#t3RIr)J06)jJ(_wj,ejU;H%iF51
     P10HMoi KC2018 06 14=AoU8YOKeSwn#.*aR.ik+3wJWRe1/wS$yb2lBwE?k'OcY],$B@VG474
     P10HMoi KC2018 06 14Q.2W@u.MTa5Js'lp2;)9jFM'-QJMaqXpsee]6j3x=g`,kY4^*npE474
     P10HMoi KC2018 06 14wcjD6KQBOX)F6S^wK%:l?!]xiA(]kN[/rYyCdAsv%sf21m0\L$Nk474
     P10HMoi KC2018 06 14YfCHaL,STgbaId]v:p([MlyKFD*fBSNn_[w\Z8+xu\8kRN3NEOCP474

Station data:
(474) Mount John Observatory, Lake Tekapo  (S43.987388 E170.464960)  New
   Zealand.  Observers A. C. Gilmore, P. M. Kilmartin. Measurer P. M.
   Kilmartin. 1.0-m f/7.7 reflector + CCD.
(F51) Pan-STARRS 1, Haleakala  (N20.707235 W156.255910)  US/Hawaii.
   Observers N. Primak, A. Schultz, S. Watters, J. Thiel, T. Goggia. Measurer
   PS1 Science Consortium. 1.8-m Ritchey-Chrétien + CCD.

Orbital elements:  P10HMoi
   Perihelion 2018 Aug 3.275274 +/- 25.4 TT =  6:36:23 (JD 2458333.775274)
Epoch 2018 Jun 14.0 TT = JDT 2458283.5   Earth MOID: 0.0732   AutoNEOCP
M 334.88848 +/- 13                  (J2000 ecliptic)
n   0.49948047 +/- 0.228            Peri.   22.71210 +/- 42
a   1.57322331 +/- 0.48             Node   298.43656 +/- 11
e   0.3167083 +/- 0.178             Incl.   10.59487 +/- 6
P   1.97/720.74d           H 21.7   G  0.15   U 11.8  SR
q 1.07497035 +/- 0.144    Q 2.07147626 +/- 8.5
From 8 observations 2018 June 13-14 (25.1 hr); mean residual 0".25
Residuals in arcseconds: 
180613 F51  .43-  .31-    180613 F51  .55+  .16+    180614 474  .26+  .07-    
180613 F51  .32-  .06-    180614 474  .15-  .03+    180614 474  .15+  .02+    
180613 F51  .21+  .21+    180614 474  .28-  .02+    

Ephemerides (geocentric):
Date (UTC) HH   RA              Dec         delta   r     elong  mag " sig PA
---- -- -- --  -------------   -----------  ------ ------ -----  --- ---- ---
2018 06 14 23  22 11 23.857   -32 25 43.42  .26377 1.1654 118.6 21.0 28.4 138
2018 06 15 00  22 11 34.586   -32 23 46.16  .26358 1.1652 118.6 21.0 32.3 138
2018 06 15 01  22 11 45.313   -32 21 48.69  .26340 1.1651 118.6 20.9 36.4 138
2018 06 15 02  22 11 56.039   -32 19 51.03  .26321 1.1649 118.6 20.9 40.7 138
2018 06 15 03  22 12 06.763   -32 17 53.16  .26302 1.1648 118.6 20.9 45.2 138
2018 06 15 04  22 12 17.486   -32 15 55.08  .26283 1.1647 118.6 20.9 49.9 138
2018 06 15 05  22 12 28.207   -32 13 56.80  .26264 1.1645 118.6 20.9 54.8 138
2018 06 15 06  22 12 38.926   -32 11 58.32  .26246 1.1644 118.6 20.9 59.8 138
2018 06 15 07  22 12 49.644   -32 09 59.64  .26227 1.1642 118.6 20.9 65.0 138
2018 06 15 08  22 13 00.361   -32 08 00.75  .26208 1.1641 118.6 20.9 70.5 138
2018 06 15 09  22 13 11.076   -32 06 01.65  .26189 1.1640 118.6 20.9 76.1 138
2018 06 15 10  22 13 21.789   -32 04 02.35  .26171 1.1638 118.6 20.9 81.9 138
2018 06 15 11  22 13 32.501   -32 02 02.85  .26152 1.1637 118.6 20.9 87.9 138
2018 06 15 12  22 13 43.212   -32 00 03.14  .26133 1.1635 118.5 20.9 94.1 138
2018 06 15 13  22 13 53.920   -31 58 03.23  .26115 1.1634 118.5 20.9  100 138
2018 06 15 14  22 14 04.628   -31 56 03.11  .26096 1.1633 118.5 20.9  107 138
2018 06 15 15  22 14 15.333   -31 54 02.78  .26078 1.1631 118.5 20.9  114 138
2018 06 15 16  22 14 26.037   -31 52 02.25  .26059 1.1630 118.5 20.9  121 138
2018 06 15 17  22 14 36.740   -31 50 01.52  .26041 1.1628 118.5 20.9  128 138
2018 06 15 18  22 14 47.441   -31 48 00.58  .26022 1.1627 118.5 20.9  135 138
2018 06 15 19  22 14 58.140   -31 45 59.43  .26004 1.1626 118.5 20.9  143 138
2018 06 15 20  22 15 08.838   -31 43 58.08  .25985 1.1624 118.5 20.9  150 138
2018 06 15 21  22 15 19.534   -31 41 56.52  .25967 1.1623 118.5 20.9  158 138
2018 06 15 22  22 15 30.228   -31 39 54.75  .25948 1.1622 118.5 20.9  166 138
2018 06 15 23  22 15 40.921   -31 37 52.78  .25930 1.1620 118.5 20.9  175 138
2018 06 16 00  22 15 51.613   -31 35 50.60  .25911 1.1619 118.5 20.9  183 138
2018 06 16 01  22 16 02.302   -31 33 48.22  .25893 1.1617 118.5 20.9  192 138
2018 06 16 02  22 16 12.990   -31 31 45.62  .25875 1.1616 118.4 20.9  201 138
2018 06 16 03  22 16 23.677   -31 29 42.82  .25856 1.1615 118.4 20.9  210 138
2018 06 16 04  22 16 34.362   -31 27 39.82  .25838 1.1613 118.4 20.9  219 138
2018 06 16 05  22 16 45.045   -31 25 36.60  .25820 1.1612 118.4 20.9  229 138
2018 06 16 06  22 16 55.726   -31 23 33.18  .25802 1.1610 118.4 20.9  238 138
2018 06 16 07  22 17 06.406   -31 21 29.55  .25783 1.1609 118.4 20.9  248 138
2018 06 16 08  22 17 17.084   -31 19 25.71  .25765 1.1608 118.4 20.9  258 138
2018 06 16 09  22 17 27.761   -31 17 21.67  .25747 1.1606 118.4 20.9  269 138
2018 06 16 10  22 17 38.436   -31 15 17.42  .25729 1.1605 118.4 20.9  279 138
2018 06 16 11  22 17 49.109   -31 13 12.95  .25711 1.1604 118.4 20.9  290 138
2018 06 16 12  22 17 59.781   -31 11 08.28  .25692 1.1602 118.4 20.9  301 138
2018 06 16 13  22 18 10.451   -31 09 03.41  .25674 1.1601 118.4 20.9  312 138
2018 06 16 14  22 18 21.119   -31 06 58.32  .25656 1.1599 118.4 20.9  323 138
2018 06 16 15  22 18 31.786   -31 04 53.02  .25638 1.1598 118.4 20.9  334 138
2018 06 16 16  22 18 42.451   -31 02 47.52  .25620 1.1597 118.3 20.9  346 138
2018 06 16 17  22 18 53.114   -31 00 41.80  .25602 1.1595 118.3 20.9  358 138
2018 06 16 18  22 19 03.776   -30 58 35.88  .25584 1.1594 118.3 20.9  370 138
2018 06 16 19  22 19 14.435   -30 56 29.75  .25566 1.1593 118.3 20.9  383 138
2018 06 16 20  22 19 25.094   -30 54 23.41  .25548 1.1591 118.3 20.9  395 138
2018 06 16 21  22 19 35.750   -30 52 16.86  .25530 1.1590 118.3 20.9  408 138
2018 06 16 22  22 19 46.405   -30 50 10.10  .25512 1.1589 118.3 20.9  421 137